Satellite: FO-70
Catalog number: 37380
Epoch time:      12046.50349291
Element set:    0106
Inclination:      071.9705 deg
RA of node:       223.0530 deg
Eccentricity:    0.0018152
Arg of perigee:   191.1227 deg
Mean anomaly:     168.9536 deg
Mean motion:   14.76682035 rev/day
Decay rate:       3.31e-06 rev/day^2
Epoch rev:           01787
Checksum:              285

/EX
SB KEPS @ AMSAT  $ORB12047.W
Orbital Elements  12047.WEATHER

HR AMSAT ORBITAL ELEMENTS FOR WEATHER SATELLITES
FROM WA5QGD FORT WORTH,TX February 16, 2012
Send SUBSCRIBE KEPS/UNSUBSCRIBE KEPS to majordomo at amsat.org only
BID: ORB12047.W
TO ALL RADIO AMATEURS BT

Satellite: NOAA-10
Catalog number: 16969
Epoch time:      12046.64226349
Element set:    0819
Inclination:      098.5952 deg
RA of node:       077.8006 deg
Eccentricity:    0.0011580
Arg of perigee:   231.3121 deg
Mean anomaly:     128.7017 deg
Mean motion:   14.27526888 rev/day
Decay rate:       -3.1e-07 rev/day^2
Epoch rev:           32238
Checksum:              304

Satellite: NOAA-11
Catalog number: 19531
Epoch time:      12046.81141848
Element set:    0817
Inclination:      098.7360 deg
RA of node:       134.5269 deg
Eccentricity:    0.0010444
Arg of perigee:   211.3178 deg
Mean anomaly:     148.7375 deg
Mean motion:   14.14951757 rev/day
Decay rate:      -1.46e-06 rev/day^2
Epoch rev:           20720
Checksum:              296

Satellite: NOAA-12
Catalog number: 21263
Epoch time:      12046.98506415
Element set:    0320
Inclination:      098.7382 deg
RA of node:       069.1712 deg
Eccentricity:    0.0013268
Arg of perigee:   193.0811 deg
Mean anomaly:     167.0027 deg
Mean motion:   14.25477387 rev/day
Decay rate:        1.7e-07 rev/day^2
Epoch rev:           07914
Checksum:              290

Satellite: MET-3/5
Catalog number: 21655
Epoch time:      12046.84036168
Element set:    0339
Inclination:      082.5535 deg
RA of node:       238.6125 deg
Eccentricity:    0.0012274
Arg of perigee:   268.7852 deg
Mean anomaly:     091.1803 deg
Mean motion:   13.17034678 rev/day
Decay rate:        5.1e-07 rev/day^2
Epoch rev:           98579
Checksum:              317

Satellite: MET-2/21
Catalog number: 22782
Epoch time:      12047.74492670
Element set:     339
Inclination:      082.5489 deg
RA of node:       128.8729 deg
Eccentricity:    0.0023683
Arg of perigee:   130.6855 deg
Mean anomaly:     229.6372 deg
Mean motion:   13.83676923 rev/day
Decay rate:       -7.7e-07 rev/day^2
Epoch rev:           93237
Checksum:              346

Satellite: OKEAN-4
Catalog number: 23317
Epoch time:      12047.84014613
Element set:     806
Inclination:      082.5422 deg
RA of node:       144.6278 deg
Eccentricity:    0.0022633
Arg of perigee:   036.2086 deg
Mean anomaly:     324.0655 deg
Mean motion:   14.83585609 rev/day
Decay rate:       9.87e-06 rev/day^2
Epoch rev:           93681
Checksum:              306

Satellite: NOAA-14
Catalog number: 23455
Epoch time:      12046.90425916
Element set:    0798
Inclination:      098.8333 deg
RA of node:       131.9195 deg
Eccentricity:    0.0008951
Arg of perigee:   312.2752 deg
Mean anomaly:     047.7658 deg
Mean motion:   14.13876806 rev/day
Decay rate:        7.4e-07 rev/day^2
Epoch rev:           88351
Checksum:              333

Satellite: NOAA-15
Catalog number: 25338
Epoch time:      12046.60615126
Element set:    0143
Inclination:      098.6813 deg
RA of node:       034.7357 deg
Eccentricity:    0.0011561
Arg of perigee:   104.3251 deg
Mean anomaly:     255.9201 deg
Mean motion:   14.25029175 rev/day
Decay rate:        8.0e-08 rev/day^2
Epoch rev:           71539
Checksum:              274

Satellite: RESURS
Catalog number: 25394
Epoch time:      12046.95417920
Element set:    0026
Inclination:      098.3116 deg
RA of node:       041.6791 deg
Eccentricity:    0.0000493
Arg of perigee:   226.3068 deg
Mean anomaly:     133.8072 deg
Mean motion:   14.24273083 rev/day
Decay rate:        4.0e-08 rev/day^2
Epoch rev:           70700
Checksum:              267

Satellite: FENGYUN1
Catalog number: 25730
Epoch time:      12046.89695482
Element set:    0547
Inclination:      098.8374 deg
RA of node:       008.0781 deg
Eccentricity:    0.0020763
Arg of perigee:   355.7063 deg
Mean anomaly:     004.3917 deg
Mean motion:   14.09234938 rev/day
Decay rate:      1.103e-05 rev/day^2
Epoch rev:           65738
Checksum:              317

Satellite: OKEAN-0
Catalog number: 25860
Epoch time:      12047.89715734
Element set:     548
Inclination:      097.9194 deg
RA of node:       013.1403 deg
Eccentricity:    0.0000582
Arg of perigee:   048.4022 deg
Mean anomaly:     311.7237 deg
Mean motion:   14.74084676 rev/day
Decay rate:       3.67e-06 rev/day^2
Epoch rev:           67670
Checksum:              305

Satellite: NOAA-16
Catalog number: 26536
Epoch time:      12046.58209373
Element set:    0627
Inclination:      099.1116 deg
RA of node:       086.7211 deg
Eccentricity:    0.0011238
Arg of perigee:   070.3744 deg
Mean anomaly:     289.8631 deg
Mean motion:   14.12706027 rev/day
Decay rate:       2.81e-06 rev/day^2
Epoch rev:           58772
Checksum:              303

Satellite: NOAA-17
Catalog number: 27453
Epoch time:      12046.86787936
Element set:    0599
Inclination:      098.3510 deg
RA of node:       080.0106 deg
Eccentricity:    0.0012238
Arg of perigee:   151.7035 deg
Mean anomaly:     208.4808 deg
Mean motion:   14.24392404 rev/day
Decay rate:       -7.3e-07 rev/day^2
Epoch rev:           50134
Checksum:              296

Satellite: NOAA-18
Catalog number: 28654
Epoch time:      12046.72833972
Element set:    0075
Inclination:      099.0321 deg
RA of node:       003.8977 deg
Eccentricity:    0.0014862
Arg of perigee:   136.9382 deg
Mean anomaly:     223.2962 deg
Mean motion:   14.11604372 rev/day
Decay rate:       2.62e-06 rev/day^2
Epoch rev:           34728
Checksum:              310

Satellite: NOAA-19
Catalog number: 33591
Epoch time:      12046.70876719
Element set:    0264
Inclination:      098.8540 deg
RA of node:       348.0869 deg
Eccentricity:    0.0014364
Arg of perigee:   011.1482 deg
Mean anomaly:     349.0006 deg
Mean motion:   14.11292335 rev/day
Decay rate:       -7.7e-07 rev/day^2
Epoch rev:           15573
Checksum:              308

/EX
SB KEPS @ AMSAT  $ORB12047.M
Orbital Elements  12047.MISC

HR AMSAT ORBITAL ELEMENTS FOR MANNED AND MISCELLANEOUS SATELLITES
FROM WA5QGD FORT WORTH,TX February 16, 2012
Send SUBSCRIBE KEPS/UNSUBSCRIBE KEPS to majordomo at amsat.org only
BID: ORB12047.M
TO ALL RADIO AMATEURS BT

Satellite: HUBBLE
Catalog number: 20580
Epoch time:      12046.82577986
Element set:     944
Inclination:      028.4681 deg
RA of node:       224.0934 deg
Eccentricity:    0.0003442
Arg of perigee:   192.6736 deg
Mean anomaly:     167.3883 deg
Mean motion:   15.02183651 rev/day
Decay rate:      1.290e-05 rev/day^2
Epoch rev:           99631
Checksum:              313

Satellite: ISS
Catalog number: 25544
Epoch time:      12047.97101807
Element set:      24
Inclination:      051.6426 deg
RA of node:       010.0328 deg
Eccentricity:    0.0020654
Arg of perigee:   051.7038 deg
Mean anomaly:     071.9608 deg
Mean motion:   15.58964144 rev/day
Decay rate:     1.3413e-04 rev/day^2
Epoch rev:           75911
Checksum:              272

Satellite: CO-58
Catalog number: 28895
Epoch time:      12047.61899627
Element set:     100
Inclination:      097.9347 deg
RA of node:       279.1187 deg
Eccentricity:    0.0018133
Arg of perigee:   169.6628 deg
Mean anomaly:     190.4976 deg
Mean motion:   14.60483965 rev/day
Decay rate:       6.88e-06 rev/day^2
Epoch rev:           33591
Checksum:              371

Satellite: FALCON
Catalog number: 30776
Epoch time:      12046.89804953
Element set:     282
Inclination:      035.4340 deg
RA of node:       303.2499 deg
Eccentricity:    0.0002790
Arg of perigee:   001.4887 deg
Mean anomaly:     358.5838 deg
Mean motion:   15.06612864 rev/day
Decay rate:      2.857e-05 rev/day^2
Epoch rev:           27179
Checksum:              324

Satellite: MAST
Catalog number: 31126
Epoch time:      12047.56346372
Element set:     385
Inclination:      097.8792 deg
RA of node:       065.7619 deg
Eccentricity:    0.0094583
Arg of perigee:   129.2066 deg
Mean anomaly:     231.7575 deg
Mean motion:   14.54032341 rev/day
Decay rate:       2.70e-06 rev/day^2
Epoch rev:           25659
Checksum:              312

Satellite: CAPE1
Catalog number: 31130
Epoch time:      12045.98039344
Element set:    0398
Inclination:      097.8893 deg
RA of node:       060.7413 deg
Eccentricity:    0.0102538
Arg of perigee:   146.4258 deg
Mean anomaly:     214.3516 deg
Mean motion:   14.52767013 rev/day
Decay rate:       4.03e-06 rev/day^2
Epoch rev:           25588
Checksum:              297

Satellite: COMPASS
Catalog number: 32787
Epoch time:      12047.68147536
Element set:     224
Inclination:      097.8153 deg
RA of node:       111.6630 deg
Eccentricity:    0.0016532
Arg of perigee:   098.7091 deg
Mean anomaly:     261.5991 deg
Mean motion:   14.83514019 rev/day
Decay rate:      2.090e-05 rev/day^2
Epoch rev:           20579
Checksum:              302

Satellite: AAUSAT2
Catalog number: 32788
Epoch time:      12047.81067720
Element set:     216
Inclination:      097.8171 deg
RA of node:       112.1081 deg
Eccentricity:    0.0016260
Arg of perigee:   097.0192 deg
Mean anomaly:     263.2889 deg
Mean motion:   14.83792528 rev/day
Decay rate:      1.958e-05 rev/day^2
Epoch rev:           20583
Checksum:              310

